Showing default

QIANFAN-56, 62786

Orbit data source: Space-Track

QIANFAN-56, 62786 is a Chinese payload satellite in LEO that was launched on Thu, 23 Jan 2025 UTC via a CHANG ZHENG 6A launch vehicle from the Taiyaun Space Center, China (TSC). Payload-class satellites include a variety of spacecraft equipped with specific instruments for various scientific and technological missions. These include communications satellites like Starlink; space stations such as the ISS; scientific satellites like the Hubble; Earth observation satellites from companies like Planet Labs, Umbra, and HawkEye 360; GPS; miniature CubeSats for education and research; and military/defense satellites.

Loading next visibility...
Identifier
62786, 2025-016B
Orbit
LEO
Country
Flag of CNCN / PRC
Related business
Manufacturer
SECM
Mission
Operational Commercial Communications
Bus & Motor
QIANFAN, Unknown motor
Mass
267 kg wet, ~267 kg dry
Launch date (UTC)
2025-01-23 (9 months ago)
Launch vehicle
CHANG ZHENG 6A
Launch site
Taiyaun Space Center, China (TSC)
Object type
Payload
Rocket body
Debris
Shape & HBR
Box + 1 Pan, 1.1 m
Radar Cross Section
13.200 m², Large (>1 m²)

Expand to show TLE details & history
Last TLE update: 8 hours ago

TLE from 8 hours ago
0 QIANFAN-56
1 62786U 25016B   25292.28081661  .00000077  00000-0  99604-4 0  9991
2 62786  88.9713 108.6858 0016941 143.4387 216.7924 13.50976409 39887
Epoch: 2025-10-19T06:44Z
TLE epoch observation values (Epoch: 2025-10-19T06:44:22.555Z)
Latitude
-0.00001°
Longitude
-20.40792°
Altitude
1,081.734 km
Speed
7.306 km/s
True Right ascension
07h 14m 44s
True Declination
0° 00' 00"
Sunlit
Object was in daylight at epoch
Visualization orbit readout
Latitude
Unknown
Longitude
Unknown
Altitude
Unknown
Speed
Unknown
Apparent Right ascension
Unknown
Apparent Declination
Unknown
Sunlit
N/A
Visualization observer readout
Local Sidereal Time
09:42:49
Azimuth
Unknown
Elevation
Unknown
Doppler factor
Unknown
Orbital elements
Apogee altitude
1,078.33 km
Perigee altitude
1,053.109 km
Semi-major axis
7,443.856 km
Eccentricity
0.00169
Inclination
88.9713°
RAAN
108.6858°
Arg. of periapsis
143.4387°
True anomaly
216.67633°
Mean anomaly
216.7924°
Eccentric anomaly
216.73435°
Mean motion
3.37945 °/min
Orbital period
106.53 mins
BSTAR
0.000099604
Loading maneuver chart data...
Computing Atmospheric mass density...
Loading historical data...
Loading historical data...
Loading historical data...
Loading historical data...
Loading historical data...
Loading historical data...
Loading historical data...

Documentation

Showing up to 5 results
|